QPF
0.01 0.00 0.00 0.01 0.01 0.01 0.01 0.02 0.01 0.01 0.00 0.00 0.00 0.00 0.00 0.00 0.00 0.00 0.00 0.01 0.01 0.02 0.02 0.03 0.03 0.03 0.03 0.03 0.03 0.03 0.02 0.02 0.02 0.02 0.02 0.04 0.04 0.04 0.05 0.05 0.04 0.03 0.02
0.01 0.01 0.00 0.00 0.00 0.01 0.01 0.01 0.01 0.01 0.01 0.00 0.00 0.00 0.00 0.00 0.00 0.00 0.00 0.00 0.00 0.01 0.01 0.01 0.01 0.01 0.02 0.02 0.03 0.03 0.02 0.02 0.02 0.02 0.02 0.04 0.05 0.05 0.04 0.03 0.04 0.03 0.03
0.00 0.01 0.00 0.00 0.00 0.00 0.01 0.01 0.01 0.01 0.02 0.02 0.01 0.00 0.00 0.00 0.00 0.00 0.01 0.01 0.00 0.00 0.00 0.00 0.00 0.01 0.01 0.01 0.01 0.02 0.02 0.02 0.02 0.03 0.03 0.03 0.04 0.05 0.05 0.04 0.04 0.03 0.03
0.00 0.00 0.00 0.00 0.00 0.00 0.00 0.01 0.01 0.01 0.01 0.02 0.02 0.01 0.00 0.00 0.00 0.00 0.00 0.00 0.01 0.01 0.00 0.00 0.00 0.00 0.00 0.01 0.01 0.01 0.01 0.01 0.02 0.03 0.03 0.03 0.03 0.04 0.05 0.05 0.04 0.04 0.03
0.00 0.00 0.00 0.00 0.00 0.00 0.01 0.01 0.01 0.01 0.01 0.01 0.02 0.02 0.01 0.00 0.00 0.00 0.01 0.00 0.00 0.00 0.00 0.00 0.00 0.01 0.01 0.01 0.01 0.01 0.01 0.02 0.02 0.02 0.03 0.03 0.03 0.03 0.03 0.04 0.04 0.03 0.03
0.00 0.00 0.00 0.00 0.00 0.01 0.01 0.01 0.01 0.02 0.01 0.01 0.01 0.02 0.01 0.01 0.00 0.01 0.01 0.01 0.00 0.00 0.00 0.00 0.00 0.01 0.01 0.01 0.01 0.01 0.01 0.02 0.02 0.02 0.02 0.02 0.02 0.01 0.01 0.02 0.02 0.02 0.03
0.00 0.00 0.00 0.00 0.00 0.00 0.01 0.01 0.02 0.02 0.02 0.02 0.01 0.01 0.01 0.01 0.00 0.01 0.01 0.01 0.00 0.00 0.00 0.00 0.01 0.01 0.01 0.01 0.01 0.01 0.01 0.02 0.02 0.02 0.02 0.01 0.01 0.01 0.01 0.02 0.02 0.02 0.02
0.01 0.00 0.00 0.00 0.00 0.00 0.01 0.01 0.02 0.02 0.02 0.03 0.03 0.02 0.01 0.01 0.01 0.01 0.01 0.01 0.01 0.01 0.01 0.01 0.01 0.01 0.01 0.01 0.01 0.01 0.01 0.01 0.01 0.02 0.02 0.01 0.01 0.01 0.01 0.02 0.02 0.03 0.03
0.00 0.00 0.00 0.00 0.00 0.00 0.01 0.01 0.02 0.02 0.03 0.02 0.02 0.02 0.02 0.01 0.01 0.01 0.01 0.01 0.00 0.00 0.01 0.01 0.01 0.01 0.02 0.02 0.02 0.01 0.01 0.01 0.01 0.01 0.01 0.02 0.02 0.02 0.02 0.02 0.03 0.03 0.03
0.00 0.00 0.00 0.00 0.00 0.01 0.01 0.01 0.02 0.02 0.02 0.02 0.02 0.01 0.01 0.01 0.01 0.01 0.02 0.01 0.01 0.00 0.01 0.01 0.01 0.01 0.02 0.02 0.01 0.01 0.01 0.01 0.01 0.01 0.01 0.02 0.02 0.03 0.04 0.03 0.04 0.04 0.03
0.00 0.00 0.00 0.00 0.00 0.00 0.01 0.02 0.02 0.03 0.03 0.02 0.02 0.01 0.01 0.01 0.01 0.01 0.01 0.01 0.01 0.01 0.01 0.01 0.01 0.01 0.01 0.01 0.01 0.01 0.01 0.01 0.01 0.01 0.01 0.01 0.02 0.03 0.04 0.04 0.04 0.04 0.04
0.00 0.00 0.00 0.00 0.00 0.00 0.01 0.01 0.02 0.03 0.04 0.03 0.02 0.01 0.01 0.00 0.01 0.01 0.01 0.02 0.02 0.01 0.01 0.01 0.01 0.01 0.01 0.01 0.01 0.01 0.01 0.02 0.01 0.01 0.01 0.01 0.01 0.02 0.03 0.03 0.04 0.05 0.05
0.00 0.00 0.00 0.00 0.00 0.01 0.01 0.01 0.01 0.02 0.02 0.02 0.02 0.01 0.01 0.01 0.01 0.01 0.01 0.01 0.02 0.02 0.01 0.01 0.01 0.02 0.02 0.02 0.01 0.01 0.01 0.01 0.01 0.01 0.01 0.01 0.01 0.01 0.02 0.03 0.04 0.05 0.05
0.00 0.00 0.00 0.00 0.00 0.01 0.01 0.01 0.01 0.01 0.02 0.02 0.02 0.01 0.01 0.01 0.01 0.01 0.01 0.01 0.01 0.02 0.02 0.01 0.02 0.02 0.02 0.02 0.02 0.01 0.01 0.01 0.01 0.01 0.01 0.01 0.01 0.01 0.02 0.02 0.03 0.04 0.05
0.00 0.00 0.00 0.00 0.00 0.01 0.01 0.01 0.01 0.01 0.01 0.02 0.02 0.02 0.01 0.01 0.01 0.01 0.01 0.01 0.01 0.02 0.02 0.01 0.01 0.01 0.01 0.02 0.02 0.01 0.01 0.02 0.02 0.01 0.01 0.02 0.02 0.02 0.02 0.02 0.02 0.03 0.04
0.00 0.00 0.00 0.00 0.00 0.01 0.01 0.01 0.01 0.01 0.01 0.01 0.01 0.01 0.01 0.01 0.01 0.01 0.01 0.02 0.02 0.02 0.02 0.02 0.01 0.01 0.01 0.02 0.02 0.02 0.02 0.01 0.02 0.02 0.02 0.02 0.02 0.03 0.02 0.02 0.02 0.03 0.03
0.00 0.00 0.01 0.01 0.01 0.01 0.01 0.01 0.01 0.01 0.01 0.01 0.01 0.01 0.01 0.01 0.01 0.01 0.01 0.01 0.02 0.02 0.02 0.02 0.01 0.01 0.01 0.01 0.02 0.02 0.02 0.02 0.02 0.02 0.03 0.03 0.03 0.04 0.04 0.03 0.03 0.03 0.03
0.01 0.01 0.01 0.01 0.01 0.01 0.01 0.01 0.01 0.01 0.01 0.01 0.01 0.01 0.01 0.01 0.01 0.01 0.01 0.02 0.02 0.02 0.01 0.02 0.02 0.01 0.01 0.02 0.02 0.02 0.02 0.03 0.03 0.04 0.03 0.03 0.04 0.04 0.04 0.04 0.03 0.03 0.03
0.01 0.01 0.01 0.01 0.01 0.01 0.01 0.01 0.01 0.01 0.00 0.01 0.01 0.01 0.01 0.01 0.01 0.01 0.02 0.02 0.02 0.02 0.02 0.02 0.02 0.02 0.02 0.02 0.02 0.02 0.02 0.03 0.03 0.04 0.04 0.04 0.04 0.04 0.04 0.03 0.04 0.03 0.03
0.01 0.01 0.01 0.01 0.01 0.01 0.01 0.01 0.01 0.00 0.00 0.00 0.01 0.01 0.01 0.01 0.01 0.02 0.02 0.02 0.03 0.02 0.02 0.02 0.02 0.02 0.02 0.02 0.02 0.02 0.02 0.03 0.03 0.04 0.04 0.04 0.04 0.04 0.04 0.03 0.04 0.04 0.04
0.01 0.01 0.01 0.01 0.01 0.01 0.01 0.01 0.01 0.00 0.00 0.00 0.00 0.01 0.01 0.02 0.02 0.02 0.02 0.02 0.02 0.02 0.02 0.02 0.02 0.02 0.02 0.02 0.02 0.02 0.03 0.03 0.03 0.03 0.03 0.04 0.05 0.05 0.05 0.05 0.05 0.04 0.04
0.01 0.01 0.01 0.01 0.01 0.01 0.01 0.01 0.01 0.00 0.00 0.01 0.01 0.01 0.01 0.01 0.01 0.01 0.02 0.02 0.02 0.02 0.02 0.02 0.02 0.03 0.02 0.02 0.02 0.02 0.02 0.02 0.02 0.03 0.03 0.03 0.04 0.05 0.05 0.05 0.05 0.05 0.05
0.01 0.01 0.01 0.01 0.01 0.01 0.01 0.01 0.01 0.00 0.01 0.01 0.01 0.01 0.01 0.01 0.01 0.01 0.02 0.02 0.02 0.01 0.01 0.01 0.02 0.02 0.02 0.02 0.02 0.02 0.02 0.02 0.02 0.02 0.03 0.03 0.03 0.04 0.04 0.04 0.04 0.04 0.05
0.01 0.01 0.01 0.01 0.01 0.01 0.01 0.01 0.01 0.00 0.01 0.01 0.01 0.01 0.01 0.01 0.01 0.01 0.01 0.01 0.02 0.02 0.01 0.01 0.02 0.02 0.02 0.02 0.02 0.02 0.02 0.03 0.03 0.03 0.03 0.03 0.03 0.03 0.03 0.02 0.02 0.03 0.04
0.01 0.01 0.01 0.01 0.01 0.01 0.01 0.01 0.01 0.01 0.01 0.01 0.01 0.01 0.01 0.01 0.01 0.01 0.01 0.01 0.02 0.02 0.02 0.02 0.02 0.02 0.02 0.02 0.02 0.02 0.02 0.02 0.02 0.02 0.02 0.02 0.02 0.02 0.02 0.02 0.02 0.03 0.04
0.01 0.01 0.01 0.01 0.01 0.01 0.01 0.01 0.01 0.01 0.01 0.01 0.01 0.01 0.01 0.01 0.01 0.01 0.01 0.01 0.02 0.02 0.02 0.02 0.02 0.01 0.01 0.02 0.02 0.02 0.02 0.02 0.02 0.02 0.02 0.02 0.02 0.02 0.02 0.02 0.03 0.03 0.03
MSLP
1011.90 1012.33 1012.78 1013.19 1013.57 1013.91 1014.22 1014.54 1014.87 1015.23 1015.62 1016.03 1016.45 1016.84 1017.19 1017.50 1017.78 1018.04 1018.31 1018.61 1018.96 1019.35 1019.75 1020.13 1020.44 1020.62 1020.64 1020.48 1020.15 1019.68 1019.15 1018.61 1018.15 1017.85 1017.75 1017.89 1018.25 1018.82 1019.56 1020.39 1021.28 1022.15 1022.98
1011.73 1012.13 1012.53 1012.89 1013.22 1013.50 1013.76 1014.04 1014.33 1014.68 1015.06 1015.47 1015.90 1016.31 1016.68 1017.02 1017.31 1017.59 1017.87 1018.17 1018.52 1018.91 1019.32 1019.73 1020.07 1020.31 1020.41 1020.35 1020.12 1019.76 1019.32 1018.88 1018.49 1018.23 1018.16 1018.31 1018.68 1019.25 1019.99 1020.84 1021.75 1022.67 1023.53
1011.63 1012.01 1012.36 1012.68 1012.94 1013.16 1013.36 1013.57 1013.82 1014.13 1014.49 1014.89 1015.32 1015.74 1016.13 1016.48 1016.79 1017.08 1017.36 1017.66 1018.00 1018.38 1018.79 1019.20 1019.56 1019.85 1020.02 1020.04 1019.91 1019.67 1019.34 1018.99 1018.68 1018.48 1018.45 1018.61 1018.99 1019.56 1020.30 1021.17 1022.12 1023.07 1023.99
1011.61 1011.95 1012.27 1012.52 1012.72 1012.87 1013.00 1013.15 1013.34 1013.60 1013.92 1014.30 1014.72 1015.14 1015.54 1015.90 1016.22 1016.52 1016.80 1017.09 1017.42 1017.78 1018.17 1018.58 1018.96 1019.28 1019.51 1019.60 1019.57 1019.43 1019.20 1018.95 1018.72 1018.57 1018.57 1018.75 1019.12 1019.70 1020.44 1021.32 1022.29 1023.29 1024.27
1011.61 1011.92 1012.19 1012.39 1012.52 1012.60 1012.66 1012.75 1012.88 1013.09 1013.37 1013.72 1014.12 1014.52 1014.92 1015.28 1015.61 1015.91 1016.19 1016.47 1016.79 1017.13 1017.52 1017.92 1018.31 1018.65 1018.92 1019.09 1019.14 1019.08 1018.95 1018.77 1018.60 1018.50 1018.52 1018.71 1019.07 1019.63 1020.37 1021.26 1022.25 1023.29 1024.31
1011.57 1011.85 1012.07 1012.21 1012.28 1012.31 1012.32 1012.35 1012.43 1012.60 1012.84 1013.15 1013.52 1013.90 1014.28 1014.64 1014.96 1015.26 1015.53 1015.81 1016.12 1016.46 1016.83 1017.23 1017.63 1018.00 1018.31 1018.53 1018.65 1018.66 1018.60 1018.49 1018.37 1018.30 1018.33 1018.51 1018.86 1019.39 1020.11 1020.99 1021.98 1023.04 1024.12
1011.44 1011.67 1011.84 1011.93 1011.95 1011.94 1011.91 1011.91 1011.96 1012.09 1012.31 1012.59 1012.93 1013.28 1013.64 1013.98 1014.30 1014.58 1014.85 1015.13 1015.43 1015.76 1016.13 1016.53 1016.94 1017.33 1017.67 1017.94 1018.11 1018.19 1018.19 1018.13 1018.06 1018.01 1018.05 1018.21 1018.53 1019.03 1019.71 1020.56 1021.54 1022.61 1023.71
1011.14 1011.31 1011.43 1011.47 1011.47 1011.43 1011.39 1011.39 1011.44 1011.56 1011.76 1012.02 1012.33 1012.67 1013.00 1013.32 1013.61 1013.89 1014.15 1014.42 1014.72 1015.05 1015.42 1015.82 1016.24 1016.65 1017.03 1017.33 1017.56 1017.69 1017.74 1017.74 1017.70 1017.68 1017.72 1017.87 1018.16 1018.61 1019.24 1020.04 1020.99 1022.04 1023.14
1010.63 1010.74 1010.79 1010.80 1010.78 1010.75 1010.73 1010.74 1010.81 1010.95 1011.16 1011.42 1011.72 1012.04 1012.35 1012.65 1012.93 1013.19 1013.44 1013.71 1014.00 1014.33 1014.71 1015.11 1015.54 1015.97 1016.36 1016.71 1016.98 1017.17 1017.28 1017.32 1017.33 1017.34 1017.40 1017.54 1017.80 1018.22 1018.79 1019.53 1020.42 1021.42 1022.49
1009.90 1009.93 1009.93 1009.92 1009.89 1009.88 1009.90 1009.96 1010.08 1010.26 1010.49 1010.77 1011.08 1011.39 1011.69 1011.97 1012.24 1012.49 1012.74 1013.00 1013.29 1013.62 1014.00 1014.40 1014.84 1015.28 1015.69 1016.07 1016.38 1016.62 1016.79 1016.90 1016.97 1017.03 1017.11 1017.26 1017.51 1017.89 1018.41 1019.08 1019.90 1020.83 1021.84
1008.97 1008.92 1008.88 1008.84 1008.83 1008.85 1008.92 1009.05 1009.23 1009.47 1009.75 1010.05 1010.38 1010.70 1011.00 1011.28 1011.55 1011.80 1012.04 1012.31 1012.60 1012.93 1013.30 1013.71 1014.14 1014.58 1015.01 1015.41 1015.77 1016.06 1016.29 1016.47 1016.61 1016.74 1016.87 1017.05 1017.30 1017.66 1018.13 1018.73 1019.46 1020.31 1021.24
1007.88 1007.76 1007.68 1007.63 1007.64 1007.71 1007.84 1008.04 1008.29 1008.58 1008.92 1009.26 1009.62 1009.96 1010.27 1010.57 1010.84 1011.11 1011.37 1011.64 1011.93 1012.26 1012.63 1013.03 1013.46 1013.90 1014.34 1014.76 1015.14 1015.49 1015.79 1016.04 1016.26 1016.45 1016.65 1016.88 1017.15 1017.49 1017.93 1018.48 1019.13 1019.88 1020.73
1006.70 1006.53 1006.42 1006.38 1006.42 1006.53 1006.72 1006.97 1007.28 1007.63 1008.01 1008.40 1008.79 1009.16 1009.51 1009.83 1010.13 1010.42 1010.70 1010.99 1011.30 1011.64 1012.00 1012.40 1012.81 1013.24 1013.68 1014.11 1014.52 1014.91 1015.27 1015.59 1015.89 1016.16 1016.43 1016.71 1017.02 1017.37 1017.79 1018.28 1018.87 1019.54 1020.30
1005.49 1005.31 1005.20 1005.17 1005.23 1005.38 1005.61 1005.90 1006.26 1006.65 1007.07 1007.49 1007.91 1008.31 1008.69 1009.05 1009.39 1009.72 1010.04 1010.37 1010.71 1011.06 1011.42 1011.81 1012.22 1012.64 1013.07 1013.50 1013.92 1014.34 1014.74 1015.13 1015.49 1015.84 1016.18 1016.51 1016.86 1017.23 1017.64 1018.11 1018.64 1019.25 1019.93
1004.33 1004.16 1004.06 1004.06 1004.14 1004.32 1004.57 1004.88 1005.25 1005.66 1006.09 1006.53 1006.97 1007.40 1007.82 1008.23 1008.62 1009.00 1009.38 1009.76 1010.13 1010.51 1010.89 1011.28 1011.68 1012.09 1012.50 1012.93 1013.36 1013.79 1014.22 1014.65 1015.07 1015.47 1015.87 1016.25 1016.63 1017.03 1017.44 1017.90 1018.40 1018.96 1019.60
1003.25 1003.12 1003.06 1003.08 1003.19 1003.37 1003.62 1003.92 1004.28 1004.67 1005.09 1005.52 1005.97 1006.43 1006.88 1007.34 1007.80 1008.25 1008.69 1009.13 1009.55 1009.97 1010.38 1010.78 1011.18 1011.58 1011.98 1012.40 1012.83 1013.26 1013.71 1014.16 1014.60 1015.04 1015.48 1015.90 1016.31 1016.73 1017.16 1017.61 1018.11 1018.66 1019.27
1002.25 1002.18 1002.17 1002.22 1002.34 1002.51 1002.74 1003.01 1003.32 1003.68 1004.06 1004.48 1004.92 1005.39 1005.88 1006.39 1006.91 1007.43 1007.95 1008.45 1008.94 1009.41 1009.85 1010.28 1010.69 1011.09 1011.49 1011.90 1012.32 1012.75 1013.19 1013.64 1014.10 1014.56 1015.01 1015.45 1015.88 1016.32 1016.77 1017.24 1017.74 1018.30 1018.92
1001.32 1001.31 1001.35 1001.43 1001.55 1001.70 1001.88 1002.10 1002.36 1002.65 1002.99 1003.37 1003.81 1004.28 1004.81 1005.36 1005.94 1006.54 1007.13 1007.71 1008.26 1008.79 1009.28 1009.74 1010.17 1010.58 1010.98 1011.39 1011.80 1012.22 1012.65 1013.10 1013.56 1014.01 1014.47 1014.92 1015.37 1015.82 1016.28 1016.77 1017.31 1017.89 1018.54
1000.39 1000.45 1000.53 1000.62 1000.73 1000.84 1000.97 1001.13 1001.32 1001.56 1001.84 1002.20 1002.62 1003.11 1003.66 1004.26 1004.90 1005.56 1006.22 1006.87 1007.49 1008.08 1008.62 1009.12 1009.58 1010.01 1010.42 1010.83 1011.24 1011.66 1012.08 1012.52 1012.97 1013.42 1013.88 1014.33 1014.78 1015.24 1015.73 1016.25 1016.82 1017.44 1018.13
999.42 999.53 999.63 999.72 999.80 999.87 999.95 1000.05 1000.18 1000.36 1000.61 1000.94 1001.36 1001.87 1002.45 1003.09 1003.79 1004.51 1005.24 1005.95 1006.63 1007.26 1007.85 1008.38 1008.88 1009.33 1009.77 1010.19 1010.61 1011.03 1011.46 1011.90 1012.35 1012.80 1013.25 1013.70 1014.16 1014.64 1015.15 1015.70 1016.30 1016.97 1017.71
998.36 998.47 998.57 998.65 998.70 998.73 998.76 998.81 998.91 999.06 999.30 999.63 1000.06 1000.59 1001.21 1001.90 1002.65 1003.42 1004.20 1004.96 1005.68 1006.36 1006.98 1007.54 1008.07 1008.55 1009.01 1009.46 1009.90 1010.34 1010.78 1011.23 1011.69 1012.14 1012.60 1013.07 1013.55 1014.05 1014.58 1015.16 1015.80 1016.51 1017.29
997.15 997.25 997.33 997.37 997.39 997.39 997.40 997.43 997.52 997.68 997.93 998.29 998.76 999.33 1000.00 1000.74 1001.53 1002.34 1003.16 1003.95 1004.69 1005.39 1006.03 1006.62 1007.16 1007.68 1008.16 1008.63 1009.10 1009.57 1010.05 1010.52 1011.01 1011.49 1011.97 1012.46 1012.96 1013.49 1014.05 1014.66 1015.33 1016.08 1016.89
995.78 995.85 995.89 995.91 995.90 995.89 995.90 995.95 996.06 996.26 996.57 996.98 997.52 998.15 998.88 999.66 1000.49 1001.34 1002.17 1002.97 1003.72 1004.43 1005.07 1005.67 1006.22 1006.75 1007.26 1007.76 1008.26 1008.77 1009.28 1009.80 1010.32 1010.84 1011.37 1011.89 1012.43 1012.99 1013.58 1014.22 1014.92 1015.68 1016.51
994.28 994.30 994.31 994.30 994.29 994.30 994.34 994.44 994.62 994.90 995.29 995.79 996.40 997.11 997.90 998.73 999.60 1000.46 1001.30 1002.10 1002.84 1003.53 1004.16 1004.75 1005.31 1005.84 1006.36 1006.89 1007.43 1007.97 1008.53 1009.10 1009.67 1010.24 1010.81 1011.39 1011.97 1012.56 1013.19 1013.85 1014.56 1015.32 1016.14
992.70 992.68 992.66 992.65 992.66 992.71 992.82 993.00 993.28 993.67 994.16 994.77 995.48 996.26 997.11 997.99 998.88 999.75 1000.59 1001.37 1002.09 1002.75 1003.36 1003.94 1004.48 1005.01 1005.54 1006.09 1006.65 1007.24 1007.84 1008.45 1009.07 1009.69 1010.32 1010.94 1011.56 1012.19 1012.84 1013.52 1014.24 1014.99 1015.80
991.12 991.08 991.06 991.08 991.14 991.26 991.46 991.75 992.15 992.65 993.26 993.97 994.77 995.64 996.54 997.46 998.36 999.23 1000.05 1000.81 1001.50 1002.14 1002.72 1003.27 1003.79 1004.32 1004.85 1005.41 1005.99 1006.60 1007.23 1007.89 1008.55 1009.22 1009.88 1010.55 1011.21 1011.87 1012.54 1013.23 1013.94 1014.68 1015.45
Thickness
5512 5511 5509 5507 5506 5506 5505 5504 5504 5503 5501 5500 5499 5497 5495 5494 5492 5490 5489 5487 5485 5483 5481 5480 5478 5475 5473 5470 5468 5467 5465 5465 5465 5469 5468 5468 5468 5468 5469 5469 5470 5470 5471
5503 5502 5500 5499 5498 5497 5496 5496 5495 5494 5493 5491 5490 5488 5487 5485 5483 5482 5480 5478 5476 5475 5473 5471 5470 5468 5464 5462 5459 5457 5456 5456 5455 5457 5458 5458 5458 5458 5459 5459 5460 5460 5461
5494 5493 5491 5490 5489 5488 5487 5487 5486 5485 5484 5482 5480 5479 5478 5477 5475 5474 5472 5470 5469 5467 5465 5463 5462 5459 5456 5454 5451 5450 5448 5448 5447 5447 5449 5448 5448 5448 5448 5449 5450 5450 5452
5485 5484 5482 5481 5480 5479 5479 5478 5478 5477 5475 5473 5472 5470 5469 5469 5467 5466 5464 5462 5460 5459 5457 5456 5454 5452 5449 5446 5444 5442 5440 5439 5438 5438 5439 5439 5438 5438 5438 5439 5440 5441 5442
5476 5475 5474 5472 5471 5470 5470 5469 5469 5468 5466 5465 5463 5462 5461 5460 5459 5457 5456 5454 5452 5451 5449 5448 5446 5444 5442 5440 5438 5435 5433 5431 5430 5429 5429 5429 5429 5428 5428 5429 5430 5432 5433
5468 5466 5465 5464 5462 5461 5461 5460 5459 5458 5457 5456 5454 5453 5452 5452 5451 5449 5447 5445 5444 5442 5441 5440 5438 5436 5434 5433 5432 5430 5427 5425 5423 5422 5421 5421 5422 5421 5420 5420 5420 5422 5424
5459 5458 5456 5455 5453 5452 5452 5451 5450 5449 5448 5446 5445 5444 5443 5443 5442 5441 5439 5436 5435 5434 5433 5431 5430 5429 5427 5425 5423 5422 5420 5419 5418 5416 5414 5415 5415 5414 5413 5412 5411 5412 5414
5450 5448 5447 5446 5444 5443 5442 5441 5440 5439 5438 5437 5436 5435 5434 5434 5433 5431 5430 5428 5427 5426 5425 5424 5422 5421 5419 5417 5415 5413 5412 5412 5411 5410 5409 5409 5408 5406 5406 5405 5404 5404 5406
5442 5440 5439 5437 5436 5434 5433 5432 5431 5430 5429 5428 5427 5426 5425 5425 5424 5423 5422 5420 5419 5418 5417 5416 5414 5413 5413 5411 5408 5406 5406 5405 5404 5403 5402 5401 5400 5399 5398 5396 5395 5395 5397
5435 5433 5431 5429 5428 5426 5425 5424 5422 5421 5420 5419 5418 5417 5416 5416 5416 5415 5414 5413 5411 5410 5409 5408 5408 5407 5406 5404 5401 5400 5398 5398 5396 5395 5393 5393 5392 5391 5390 5389 5388 5387 5388
5428 5425 5423 5422 5420 5418 5417 5415 5414 5412 5411 5409 5409 5408 5407 5408 5407 5407 5407 5405 5404 5402 5401 5401 5401 5401 5400 5399 5396 5394 5393 5391 5388 5386 5385 5384 5384 5384 5384 5383 5382 5381 5381
5419 5417 5416 5414 5412 5411 5408 5406 5405 5403 5401 5400 5399 5398 5399 5399 5399 5400 5399 5399 5398 5395 5394 5394 5394 5394 5393 5392 5390 5388 5387 5384 5380 5378 5377 5377 5377 5377 5378 5377 5377 5377 5377
5411 5409 5407 5406 5404 5403 5400 5398 5396 5394 5393 5392 5390 5390 5391 5391 5391 5392 5391 5391 5390 5389 5388 5388 5387 5386 5386 5385 5384 5381 5379 5376 5373 5372 5371 5371 5370 5371 5371 5371 5371 5371 5372
5403 5401 5399 5398 5396 5394 5393 5391 5389 5387 5385 5384 5384 5383 5383 5383 5383 5383 5382 5382 5382 5381 5381 5380 5380 5379 5378 5377 5376 5373 5371 5369 5367 5366 5365 5364 5364 5363 5364 5364 5365 5365 5366
5394 5393 5391 5390 5388 5387 5386 5384 5383 5382 5380 5379 5378 5377 5376 5376 5377 5377 5375 5375 5374 5373 5372 5371 5371 5370 5369 5369 5367 5366 5365 5363 5361 5360 5359 5359 5358 5358 5358 5358 5359 5359 5359
5387 5385 5383 5382 5381 5379 5378 5376 5376 5375 5375 5374 5372 5371 5371 5371 5371 5370 5370 5369 5368 5367 5365 5364 5363 5362 5362 5361 5361 5360 5359 5358 5356 5355 5354 5354 5354 5354 5353 5353 5353 5353 5354
5379 5378 5376 5375 5373 5371 5370 5369 5368 5367 5367 5366 5365 5365 5364 5364 5364 5363 5363 5362 5361 5360 5357 5356 5356 5356 5356 5355 5355 5354 5353 5353 5351 5350 5350 5349 5350 5349 5348 5348 5348 5349 5349
5372 5372 5370 5368 5366 5365 5363 5362 5360 5359 5358 5358 5358 5358 5358 5357 5357 5356 5356 5354 5353 5351 5349 5348 5348 5348 5348 5348 5348 5348 5347 5347 5346 5345 5345 5345 5344 5344 5344 5344 5344 5345 5345
5366 5364 5363 5361 5359 5358 5356 5354 5353 5352 5351 5350 5349 5350 5350 5350 5350 5349 5348 5345 5344 5343 5342 5341 5341 5340 5340 5340 5341 5341 5341 5341 5341 5340 5340 5340 5340 5340 5340 5340 5340 5341 5341
5360 5359 5357 5354 5352 5351 5350 5348 5347 5345 5344 5342 5342 5342 5342 5342 5341 5340 5339 5338 5338 5337 5336 5335 5334 5334 5334 5334 5334 5335 5335 5335 5335 5335 5335 5336 5336 5336 5336 5336 5336 5336 5337
5353 5352 5352 5348 5346 5345 5343 5342 5340 5338 5337 5336 5336 5336 5337 5335 5335 5334 5333 5333 5332 5331 5330 5329 5329 5328 5328 5328 5329 5330 5330 5331 5331 5331 5331 5331 5332 5332 5332 5332 5332 5332 5332
5347 5345 5344 5342 5340 5338 5337 5335 5334 5332 5331 5330 5329 5329 5331 5329 5329 5328 5328 5327 5327 5326 5325 5324 5324 5324 5324 5324 5324 5325 5326 5326 5326 5327 5327 5327 5328 5328 5328 5327 5327 5327 5327
5340 5339 5337 5335 5334 5333 5331 5329 5327 5326 5325 5325 5324 5324 5324 5323 5323 5323 5323 5322 5321 5321 5320 5320 5319 5320 5320 5320 5321 5321 5322 5323 5323 5324 5324 5324 5324 5324 5324 5324 5323 5323 5324
5334 5332 5331 5329 5328 5326 5325 5323 5322 5321 5321 5320 5319 5319 5319 5318 5318 5318 5317 5317 5316 5316 5316 5315 5316 5316 5316 5317 5317 5318 5319 5320 5320 5321 5321 5321 5320 5320 5320 5320 5320 5320 5319
5327 5326 5325 5323 5322 5321 5319 5318 5317 5317 5316 5316 5315 5314 5314 5314 5313 5312 5312 5311 5311 5311 5311 5311 5312 5312 5313 5314 5314 5315 5316 5317 5318 5318 5318 5318 5317 5316 5316 5316 5315 5315 5314
5321 5320 5319 5318 5316 5315 5314 5313 5313 5312 5311 5311 5310 5309 5309 5308 5308 5307 5307 5306 5306 5306 5306 5307 5308 5309 5310 5310 5311 5312 5313 5314 5315 5315 5315 5314 5313 5313 5312 5311 5311 5311 5310